User: anonymous   Login
Location: Laura�t
(43.9341°N, 0.2497°E)
Time: 22:16:20
(UTC+00:00)
Language:

CSL-04 Rocket - Orbit

View from above orbital plane
View from above orbital plane
View from above satellite
View from above satellite

Ground track
Ground track

The orbit data is extracted from the following two-line orbital elements,

1 25732U 99025C   21129.55690197 -.00000027  00000-0  88957-5 0  9993
2 25732  98.9059 165.9196 0037329   2.5026 152.4942 14.17692077138022
Epoch (UTC): 09 May 2021 13:21:56
Eccentricity: 0.0037329
inclination: 98.9059°
perigee height: 806 km
apogee height: 860 km
right ascension of ascending node: 165.9196°
argument of perigee: 2.5026°
revolutions per day: 14.17692077
mean anomaly at epoch: 152.4942°
orbit number at epoch: 13802

The dashed part of the orbit path shows where the satellite is in the earth's shadow,  

DLR